Voltar ao catálogo

NOAA 16 DEB

AtivoPO
NORAD 41663·DEBRIS·🇺🇸 United States

Lançado Sep 21, 2000 de Vandenberg Space Force Base

Loading…

Próximas Passagens (próximas 24 horas)

TLE

AtualizadoSource: Space-Track

Época: Sep 13, 2026, 09:28 UTC

1 41663U 00055PC  26256.39460864  .00007940  00000-0  16714-2 0  9992
2 41663  98.8318  50.3996 0011954 199.7313 160.3424 14.59752833541539

Acompanhe NOAA 16 DEB em tempo real com AllMySat

Download on the App Store